Lyndonville, VT

12:03 AM EDT on August 27, 2016 (GMT -0400)
Lyndonville

Weather History for KCDA - October, 2012

Change the Weather History Date:

Sunday, October 28, 2012

  Actual Average (K1V4) Record (K1V4)
Temperature  
Mean Temperature 53 °F 43 °F  
Max Temperature 61 °F 53 °F 76 °F (1971)
Min Temperature 45 °F 33 °F 13 °F (1936)
Degree Days  
Heating Degree Days 12 22  
Month to date heating degree days 485  
Since 1 July heating degree days 719  
Cooling Degree Days 0 0  
Month to date cooling degree days 0  
Year to date cooling degree days 432  
Growing Degree Days 3 (Base 50)    
Moisture  
Dew Point 43 °F    
Average Humidity 68    
Maximum Humidity 91    
Minimum Humidity 42    
Precipitation  
Precipitation 0.00 in 0.12 in 1.71 in (2006)
Month to date precipitation 3.51  
Year to date precipitation 32.66  
Sea Level Pressure  
Sea Level Pressure 30.00 in    
Wind  
Wind Speed 3 mph (ENE)    
Max Wind Speed 13 mph    
Max Gust Speed 20 mph    
Visibility 8 miles    
Events Fog    
T = Trace of Precipitation, MM = Missing Value Source: NWS Daily Summary

Daily Weather History Graph

Daily Weather History Graph

Search for Another Location

Airport or City:

Trip Planner

Search our weather history database for the weather conditions in past years. The results will help you decide how hot, cold, wet, or windy it might be!

Date:

Astronomy

Oct. 28, 2012 Rise Set
Actual Time 7:20 AM EDT 5:42 PM EDT
Civil Twilight 6:50 AM EDT 6:12 PM EDT
Nautical Twilight 6:16 AM EDT 6:46 PM EDT
Astronomical Twilight 5:42 AM EDT 7:20 PM EDT
Moon 4:58 PM EDT (10/28) 6:09 AM EDT (10/28)
Length of Visible Light 11h 21m
Length of Day
10h 21m
Waxing Gibbous, 99% of the Moon is Illuminated
Oct 28
Waxing Gibbous
Oct 29
Full
Nov 6
Last Quarter
Nov 13
New
Nov 20
First Quarter

Hourly Weather History & Observations

Time (EDT) Temp. Windchill Dew Point Humidity Pressure Visibility Wind Dir Wind Speed Gust Speed Precip Events Conditions
12:15 AM 54.5 °F - 49.6 °F 84% 30.05 in 10.0 mi Calm Calm - N/A   Clear
12:35 AM 54.3 °F - 49.3 °F 83% 30.05 in 10.0 mi Calm Calm - N/A   Clear
12:55 AM 52.7 °F - 49.1 °F 88% 30.05 in 7.0 mi Calm Calm - N/A   Clear
1:15 AM 51.6 °F - 48.6 °F 89% 30.05 in 2.5 mi Calm Calm - N/A   Clear
1:35 AM 51.8 °F - 48.7 °F 89% 30.05 in 5.0 mi Calm Calm - N/A   Clear
1:55 AM 53.4 °F - 49.8 °F 88% 30.04 in 10.0 mi Calm Calm - N/A   Clear
2:15 AM 52.5 °F - 49.1 °F 88% 30.04 in 7.0 mi Calm Calm - N/A   Clear
2:35 AM 52.7 °F - 50.0 °F 91% 30.04 in 7.0 mi Calm Calm - N/A   Clear
2:55 AM 49.6 °F - 46.9 °F 90% 30.05 in 1.5 mi Calm Calm - N/A   Mist
3:15 AM 49.8 °F - 47.1 °F 90% 30.04 in 1.8 mi Calm Calm - N/A   Mist
3:35 AM 48.6 °F - 45.9 °F 90% 30.03 in 0.2 mi Calm Calm - N/A Fog Fog
3:55 AM 48.2 °F - 45.5 °F 90% 30.03 in 0.5 mi Calm Calm - N/A Fog Fog
4:15 AM 49.1 °F - 46.6 °F 91% 30.03 in 0.2 mi West 4.6 mph - N/A Fog Fog
4:35 AM 49.5 °F - 46.9 °F 91% 30.03 in 1.0 mi West 3.5 mph - N/A   Mist
4:55 AM 47.7 °F - 45.1 °F 91% 30.04 in 0.5 mi Calm Calm - N/A Fog Fog
5:15 AM 46.6 °F - 44.1 °F 91% 30.04 in 0.2 mi Calm Calm - N/A Fog Fog
5:35 AM 46.6 °F - 44.1 °F 91% 30.03 in 0.2 mi Calm Calm - N/A Fog Fog
5:55 AM 48.2 °F - 45.7 °F 91% 30.03 in 0.5 mi Calm Calm - N/A Fog Fog
6:15 AM 48.4 °F - 45.9 °F 91% 30.03 in 0.5 mi Calm Calm - N/A Fog Fog
6:35 AM 47.3 °F - 44.8 °F 91% 30.04 in 1.8 mi Calm Calm - N/A   Mist
6:55 AM 45.7 °F - 43.2 °F 91% 30.04 in 0.2 mi Calm Calm - N/A Fog Fog
7:15 AM 46.2 °F 43.3 °F 43.7 °F 91% 30.04 in 1.5 mi NNE 5.8 mph - N/A   Mostly Cloudy
7:35 AM 46.8 °F - 44.2 °F 91% 30.05 in 10.0 mi NNE 5.8 mph - N/A   Clear
7:55 AM 48.0 °F - 44.6 °F 88% 30.04 in 10.0 mi NE 4.6 mph - N/A   Clear
8:15 AM 50.2 °F - 39.7 °F 67% 30.05 in 10.0 mi NE 4.6 mph - N/A   Clear
8:35 AM 50.9 °F - 40.8 °F 68% 30.06 in 10.0 mi NE 3.5 mph - N/A   Clear
8:55 AM 51.6 °F - 40.8 °F 67% 30.06 in 10.0 mi NNE 3.5 mph - N/A   Clear
9:15 AM 52.5 °F - 41.4 °F 66% 30.06 in 10.0 mi ENE 4.6 mph - N/A   Clear
9:35 AM 53.1 °F - 41.2 °F 64% 30.06 in 10.0 mi ENE 3.5 mph - N/A   Clear
9:55 AM 54.5 °F - 41.4 °F 61% 30.05 in 10.0 mi NE 5.8 mph - N/A   Clear
10:35 AM 55.2 °F - 39.4 °F 55% 30.04 in 10.0 mi NNE 5.8 mph - N/A   Clear
10:55 AM 56.7 °F - 40.3 °F 54% 30.04 in 10.0 mi ENE 4.6 mph - N/A   Clear
11:15 AM 58.1 °F - 39.0 °F 49% 30.03 in 10.0 mi East 3.5 mph - N/A   Clear
11:35 AM 58.5 °F - 39.7 °F 50% 30.03 in 10.0 mi ENE 6.9 mph - N/A   Clear
11:55 AM 59.5 °F - 39.0 °F 47% 30.02 in 10.0 mi ESE 4.6 mph - N/A   Clear
12:15 PM 59.2 °F - 38.8 °F 47% 30.02 in 10.0 mi East 4.6 mph - N/A   Clear
12:35 PM 59.0 °F - 38.1 °F 46% 30.02 in 10.0 mi East 6.9 mph - N/A   Clear
12:55 PM 59.0 °F - 38.7 °F 47% 30.01 in 10.0 mi East 4.6 mph - N/A   Clear
1:35 PM 59.0 °F - 39.2 °F 48% 30.00 in 10.0 mi Calm Calm - N/A   Clear
1:55 PM 60.4 °F - 37.9 °F 43% 29.99 in 10.0 mi Calm Calm - N/A   Clear
2:15 PM 60.8 °F - 38.3 °F 43% 29.98 in 10.0 mi East 5.8 mph - N/A   Clear
2:35 PM 61.7 °F - 38.1 °F 42% 29.98 in 10.0 mi East 4.6 mph - N/A   Clear
2:55 PM 60.8 °F - 39.0 °F 45% 29.97 in 10.0 mi East 4.6 mph - N/A   Clear
3:15 PM 61.7 °F - 40.6 °F 46% 29.97 in 10.0 mi East 8.1 mph - N/A   Clear
3:35 PM 60.8 °F - 41.2 °F 48% 29.96 in 10.0 mi East 8.1 mph - N/A   Clear
3:55 PM 60.3 °F - 41.5 °F 50% 29.96 in 10.0 mi East 4.6 mph - N/A   Clear
4:15 PM 59.9 °F - 41.0 °F 50% 29.95 in 10.0 mi NE 9.2 mph - N/A   Clear
4:35 PM 59.0 °F - 41.0 °F 51% 29.96 in 10.0 mi NE 6.9 mph - N/A   Clear
4:55 PM 58.5 °F - 41.2 °F 53% 29.96 in 10.0 mi East 8.1 mph - N/A   Clear
5:15 PM 58.3 °F - 41.4 °F 53% 29.95 in 10.0 mi East 5.8 mph - N/A   Clear
5:35 PM 57.7 °F - 41.7 °F 55% 29.94 in 10.0 mi ENE 3.5 mph - N/A   Clear
5:55 PM 57.2 °F - 41.5 °F 56% 29.94 in 10.0 mi NE 8.1 mph - N/A   Clear
6:15 PM 56.5 °F - 41.9 °F 58% 29.94 in 10.0 mi ENE 8.1 mph - N/A   Clear
6:35 PM 56.5 °F - 41.5 °F 57% 29.93 in 10.0 mi ENE 12.7 mph 19.6 mph N/A   Clear
6:55 PM 55.9 °F - 41.9 °F 59% 29.94 in 10.0 mi NE 5.8 mph - N/A   Clear
7:15 PM 55.4 °F - 41.9 °F 60% 29.94 in 10.0 mi East 10.4 mph 17.3 mph N/A   Clear
7:35 PM 54.7 °F - 42.4 °F 63% 29.94 in 10.0 mi ENE 6.9 mph - N/A   Clear
7:55 PM 54.5 °F - 42.8 °F 65% 29.94 in 10.0 mi East 8.1 mph - N/A   Clear
8:15 PM 53.8 °F - 42.3 °F 65% 29.94 in 10.0 mi ENE 5.8 mph - N/A   Clear
8:35 PM 52.7 °F - 42.4 °F 68% 29.95 in 10.0 mi ENE 3.5 mph - N/A   Clear
8:55 PM 52.7 °F - 41.9 °F 67% 29.96 in 10.0 mi Calm Calm - N/A   Clear
9:15 PM 52.5 °F - 41.5 °F 66% 29.95 in 10.0 mi NE 4.6 mph - N/A   Clear
9:55 PM 52.2 °F - 40.6 °F 65% 29.94 in 10.0 mi ENE 4.6 mph - N/A   Clear
10:15 PM 52.2 °F - 40.5 °F 64% 29.95 in 10.0 mi NE 5.8 mph - N/A   Scattered Clouds
10:35 PM 51.8 °F - 40.6 °F 66% 29.94 in 10.0 mi NE 3.5 mph - N/A   Mostly Cloudy
10:55 PM 51.3 °F - 41.0 °F 68% 29.93 in 10.0 mi NE 3.5 mph - N/A   Overcast
11:15 PM 50.9 °F - 41.0 °F 69% 29.93 in 10.0 mi ENE 6.9 mph - N/A   Mostly Cloudy
11:55 PM 51.6 °F - 42.3 °F 70% 29.92 in 10.0 mi NE 6.9 mph - N/A   Mostly Cloudy